Weather Roundup
Issued by NWS

Home | Current Version | Previous Version | Graphics & Text | Print | Product List | Glossary Off
Versions: 1 2 3 4 5 6 7 8 9 10 11 12 13 14 15 16 17 18 19 20 21 22 23 24 25 26 27 28 29 30 31 32 33 34 35 36 37 38 39 40 41 42 43 44 45 46 47 48 49 50

633
NZUS93 KARX 291510
HRRWXR

CURRENT HOURLY OBSERVATIONS ACROSS
MUCH OF THE UPPER MISSISSIPPI VALLEY
NATIONAL WEATHER SERVICE LA CROSSE WI
1000 AM CDT FRI JUL 29 2016


...SOUTHEAST MINNESOTA...


CITY           SKY/WX    TMP DP  RH WIND       PRES   REMARKS
ROCHESTER      CLOUDY    66  60  81 NE9       30.06S
ROCHESTER/MAYO CLOUDY    66  61  81 N6        30.06S
WINONA         CLOUDY    70  59  68 N6        30.04F
AUSTIN         CLOUDY    66  59  77 NE7       30.04S
ALBERT LEA     CLOUDY    66  63  88 N6        30.06S
DODGE CENTER   CLOUDY   N/A N/A N/A NE7       30.06S
PRESTON        CLOUDY    63  59  85 N9        30.04F
OWATONNA       MOSUNNY   68  61  77 NE5       30.07S
FARIBAULT      CLOUDY    68  61  77 N5        30.08R
$$

...ELSEWHERE IN MINNESOTA...


CITY           SKY/WX    TMP DP  RH WIND       PRES   REMARKS
MINNEAPOLIS    MOSUNNY   69  55  60 VRB7      30.08R
INTNL FALLS    SUNNY     69  57  65 SE6       30.09F
DULUTH         SUNNY     68  52  56 SE12      30.12S
RED WING       CLOUDY    70  55  60 E6        30.05S
REDWOOD FALLS  SUNNY     69  57  65 VRB5      30.09S
MANKATO        MOSUNNY   68  57  68 N8        30.08R
WORTHINGTON    SUNNY     68  61  78 NE8       30.11R
FAIRMONT       CLOUDY    66  57  72 N7        30.07R
$$

...SOUTHWEST WISCONSIN...


CITY           SKY/WX    TMP DP  RH WIND       PRES   REMARKS
LA CROSSE      CLOUDY    67  59  75 VRB6      30.02F
PRAIRIE DU CHI CLOUDY    65  61  85 N7        30.00R
BOSCOBEL       CLOUDY    66  61  84 E7        30.00S
LONE ROCK      CLOUDY    64  61  90 E8        30.01S
PLATTEVILLE    CLOUDY    68  66  94 NE8       29.99S
FORT MC COY    CLOUDY    68  60  74 NE7       30.04F
CAMP DOUGLAS   CLOUDY    64  59  82 NE6       30.03F
MAUSTON-NEW LI CLOUDY    64  61  90 CALM      30.03S
VIROQUA        CLOUDY    63  59  88 NE7       30.03S
WIS DELLS      DRIZZLE   61  58  92 CALM      30.02S
$$

...ELSEWHERE IN WISCONSIN...


CITY           SKY/WX    TMP DP  RH WIND       PRES   REMARKS
MILWAUKEE      CLOUDY    72  65  78 E13       29.98R
MADISON        LGT RAIN  66  64  93 NE7       29.99R
GREEN BAY      CLOUDY    67  65  93 N8        30.03S
EAU CLAIRE     SUNNY     69  55  60 NE5       30.06S
BLACK RVR FLS  FAIR      69  57  66 NE6       30.04S
MEDFORD        SUNNY     66  55  67 E5        30.08S
WAUSAU         SUNNY     69  60  73 E8        30.05S
WIS RAPIDS     CLOUDY    67  58  72 E6        30.06S
MARSHFIELD     MOSUNNY   69  60  73 E8        30.06R
RICE LAKE      SUNNY     66  53  62 NE6       30.10S
$$

...NORTHEAST IOWA...


CITY           SKY/WX    TMP DP  RH WIND       PRES   REMARKS
WATERLOO       CLOUDY    68  64  87 NE7       29.99R
DUBUQUE        CLOUDY    68  64  87 N8        29.98S
DECORAH        LGT RAIN  63  63 100 NE6       30.02R
MASON CITY     CLOUDY    64  62  93 NE7       30.06R
CHARLES CITY   CLOUDY    64  64 100 NE12      30.02S
OELWEIN        CLOUDY    66  64  94 NE9       30.01R
$$

...ELSEWHERE IN IOWA...


CITY           SKY/WX    TMP DP  RH WIND       PRES   REMARKS
DES MOINES     CLOUDY    70  62  76 N5        30.02S
IOWA CITY      CLOUDY    71  66  84 NW7       29.98S
FORT DODGE     CLOUDY    64  61  88 N5        30.06R
MARSHALLTOWN   LGT RAIN  65  65 100 NW8       30.01R FOG
CEDAR RAPIDS   CLOUDY    69  69 100 W3        29.97R FOG
$$

...NORTHERN ILLINOIS...


CITY           SKY/WX    TMP DP  RH WIND       PRES   REMARKS
CHICAGO-OHARE  CLOUDY    78  69  73 E5        29.92F
CHICAGO-MIDWAY PTSUNNY   81  68  64 NE5       29.92F
MOLINE         PTSUNNY   75  68  78 SW6       29.94S
ROCKFORD       CLOUDY    74  66  76 E6        29.96S
PEORIA         CLOUDY    72  70  93 NW6       29.95S
$$

NOTE: "FAIR" INDICATES FEW OR NO CLOUDS BELOW 12,000 FEET WITH NO
SIGNIFICANT WEATHER AND/OR OBSTRUCTIONS TO VISIBILITY. WIND
SPEEDS ARE IN MILES-PER-HOUR.




USA.gov is the U.S. government's official web portal to all federal, state and local government web resources and services.